Theta_e
292 288 284 289 287 284 285 283 281 283 288 288 287 288 290 292 291 291 292 292 292 292 296 294 296 296 305 309 313 317 322 326 328 329 329 328 327 329 330 330 326 321 321 317
289 285 290 291 288 286 286 283 282 285 288 288 286 287 289 290 291 292 292 292 291 291 292 293 293 293 295 302 310 314 318 324 327 329 329 329 329 329 329 330 329 324 322 320
286 288 292 290 287 286 283 282 282 284 284 285 283 283 284 288 289 290 291 291 291 291 292 293 292 292 291 293 299 309 315 320 325 328 327 318 322 323 327 328 328 328 325 323
287 290 289 287 285 287 282 287 286 285 283 279 283 277 282 285 287 288 290 288 289 289 290 290 291 291 292 292 293 300 309 315 321 325 325 324 326 325 327 328 329 328 327 325
285 288 287 286 287 289 286 288 286 283 281 280 279 279 282 281 285 287 288 289 291 291 288 289 294 295 295 294 292 293 301 309 315 322 325 324 324 325 322 327 324 325 325 326
286 290 289 289 288 289 289 286 284 281 280 276 279 280 278 281 284 287 287 288 289 290 292 292 293 294 294 296 296 298 299 305 312 319 323 322 322 318 311 311 323 324 322 323
285 286 288 289 287 288 285 284 277 275 274 275 277 278 280 285 285 284 287 289 289 290 291 292 293 294 294 294 296 298 301 303 308 312 315 316 318 313 313 310 319 318 317 311
281 280 287 290 288 286 284 284 278 271 272 275 279 277 282 285 287 288 287 289 291 292 292 293 292 293 293 294 294 296 297 301 304 307 309 309 310 310 309 309 309 315 316 317
281 281 287 288 288 289 284 281 283 278 267 272 277 280 285 285 289 290 291 291 291 291 293 293 293 293 293 294 294 295 296 297 299 302 304 305 306 307 307 306 305 305 305 309
285 280 285 286 288 287 285 287 280 278 269 267 275 276 279 284 287 289 290 291 291 292 293 293 293 293 293 294 294 295 296 296 296 297 298 300 300 301 302 302 302 301 301 300
285 283 282 285 284 283 283 282 281 282 279 273 270 276 283 284 289 289 290 290 291 292 292 292 292 292 292 293 293 294 295 295 296 296 296 297 297 298 298 298 299 298 298 298
287 285 279 282 285 285 284 284 284 279 276 277 277 280 286 286 290 290 289 291 291 291 291 290 291 292 292 293 293 293 293 293 294 295 295 296 296 296 296 297 297 297 297 295
290 283 274 279 282 284 283 283 284 283 281 278 274 280 287 288 288 289 289 290 290 291 291 291 291 291 291 291 291 291 292 292 292 293 293 294 294 294 295 295 295 295 294 294
294 285 280 278 280 283 282 283 284 284 279 281 279 281 285 286 288 288 288 289 291 290 290 290 290 290 290 290 289 289 290 290 289 290 291 291 292 292 293 293 293 292 292 292
291 284 285 285 286 286 283 283 284 283 286 281 284 282 285 288 288 289 289 290 290 289 289 289 289 289 288 288 288 288 288 287 287 287 288 288 288 289 289 289 289 289 289 289
291 282 283 278 283 283 282 286 286 285 284 283 282 284 290 290 289 288 290 290 289 288 288 289 288 288 288 288 287 287 286 286 285 285 285 285 285 285 285 286 287 287 287 287
288 284 276 271 282 282 278 283 284 285 284 285 283 287 289 288 290 290 289 289 288 288 288 288 288 288 288 287 286 285 284 284 283 283 283 283 283 283 284 284 285 285 285 285
286 284 278 270 282 273 280 281 285 285 286 288 287 287 289 289 289 289 288 287 287 287 287 287 287 287 287 286 286 284 283 283 283 282 282 282 282 282 283 283 283 283 283 282
289 283 278 277 275 278 280 280 282 282 282 288 288 287 287 288 287 285 288 287 287 286 287 287 287 287 287 285 285 283 283 282 282 282 282 281 280 279 280 280 281 281 278 279
285 286 280 274 274 269 278 281 288 289 278 281 288 287 285 284 280 284 287 285 286 285 286 286 286 285 285 284 283 282 282 281 281 281 281 280 279 275 277 278 279 277 274 279
281 280 280 277 272 275 280 281 287 277 277 278 285 284 283 281 283 285 284 284 284 285 284 285 285 285 284 283 282 282 281 281 281 279 279 279 277 275 276 276 275 272 274 275
278 279 277 278 276 270 281 282 281 283 283 282 283 284 283 284 284 284 284 283 283 284 284 284 282 282 283 282 279 279 279 280 277 277 276 275 274 276 275 268 270 269 268 271
273 277 274 277 277 281 281 281 283 285 283 284 283 283 284 284 283 283 283 283 284 284 284 282 280 281 281 279 277 278 278 278 276 273 274 273 274 275 273 269 273 269 266 266
273 275 271 274 275 279 281 283 284 284 284 284 284 284 283 282 282 282 283 283 282 281 282 279 278 278 278 275 276 275 276 276 273 275 274 276 274 276 273 275 274 268 270 269
276 277 273 273 278 280 281 282 282 283 283 281 281 281 281 281 281 281 279 280 281 280 278 277 277 277 277 275 274 273 276 274 273 272 273 274 276 275 276 274 273 273 273 273
277 276 275 272 280 281 281 282 282 281 280 280 280 279 280 279 279 276 276 276 274 274 274 275 275 275 274 272 271 269 265 266 266 268 270 272 273 277 276 271 272 280 283 284
Wind_Speed
3 5 7 9 5 3 6 5 3 3 2 2 5 8 12 10 6 10 10 11 11 12 11 6 8 8 9 8 10 12 12 14 10 9 10 10 11 8 8 8 11 11 11 12
5 4 7 5 6 4 4 4 3 2 2 3 5 12 10 9 9 8 8 10 11 8 8 10 8 8 10 12 13 13 15 14 13 10 10 9 10 9 9 8 9 13 13 13
7 2 9 7 5 5 2 6 5 4 2 2 5 9 6 6 5 6 9 9 9 11 11 9 7 7 7 10 12 14 15 15 14 15 7 3 3 2 5 8 8 10 14 14
3 3 7 5 5 6 3 7 5 4 4 4 2 7 6 5 10 7 11 8 10 10 8 6 7 5 5 7 6 8 9 11 12 13 11 14 13 13 12 10 8 8 13 13
6 9 6 4 7 7 6 5 5 3 4 3 3 2 9 3 7 9 8 7 8 7 4 4 4 5 4 5 2 5 6 7 8 11 15 12 12 10 4 8 8 8 8 12
3 1 4 6 3 3 10 7 7 5 3 2 5 6 7 5 6 0 2 5 7 9 8 6 4 6 6 6 5 2 4 6 7 9 12 13 13 8 5 4 9 7 6 7
2 1 0 3 7 5 4 7 2 4 3 7 2 0 9 9 5 3 6 9 9 7 7 7 8 8 8 8 7 5 2 2 4 6 6 7 8 8 9 7 8 7 5 3
7 3 7 5 7 10 8 8 8 9 5 4 2 8 8 5 3 4 2 3 6 8 8 8 7 6 7 8 8 7 6 3 0 3 4 3 3 3 4 5 4 5 6 8
6 5 1 2 2 6 6 6 5 8 3 4 5 7 11 1 6 5 6 6 6 5 5 7 8 8 8 8 8 8 8 6 4 1 1 3 3 5 5 5 3 3 3 5
5 2 2 1 3 3 4 8 4 3 3 4 5 5 7 3 6 4 5 6 6 5 7 7 7 8 7 7 7 7 7 7 6 6 5 2 2 3 3 3 6 6 6 5
5 4 2 2 6 9 3 3 4 5 6 7 2 8 8 2 9 10 5 3 5 7 6 7 7 7 7 6 8 8 8 8 8 6 4 4 4 4 3 4 5 6 5 6
2 4 5 7 2 2 1 7 8 6 5 3 3 11 3 7 7 5 3 5 5 5 6 7 7 7 8 9 10 10 10 9 7 6 5 5 5 4 4 5 6 5 6 5
3 2 3 6 2 2 5 4 3 4 4 10 7 11 4 6 7 2 1 4 4 5 7 7 8 8 7 7 7 7 7 8 8 9 8 7 7 6 6 5 6 6 6 6
3 2 5 9 4 1 4 4 5 6 4 11 11 6 5 6 5 1 1 2 5 5 6 6 7 7 6 7 7 8 8 7 8 8 8 8 8 8 7 7 6 6 5 6
4 3 2 2 0 2 3 2 3 13 20 11 13 13 7 12 8 3 2 3 4 6 7 7 6 6 6 7 7 6 6 7 8 8 8 9 8 7 7 7 7 7 6 6
3 4 3 2 6 4 6 12 11 10 6 6 2 10 7 6 2 4 4 5 4 5 5 5 5 6 7 7 6 7 8 8 7 7 7 7 7 8 8 8 8 7 7 7
7 6 4 5 3 2 9 16 15 8 7 6 12 9 7 3 6 6 6 5 5 4 4 5 6 6 6 6 5 6 6 5 5 5 5 6 6 6 6 6 6 7 7 6
8 6 2 3 5 7 6 1 4 14 4 12 6 4 5 6 4 5 5 6 6 4 3 3 3 4 5 5 5 5 5 6 6 5 5 5 6 7 7 7 7 7 5 5
9 5 4 5 4 5 5 6 8 9 10 17 10 7 6 5 4 2 5 4 5 4 2 3 2 2 3 5 5 5 6 6 6 6 5 5 5 6 7 7 7 6 4 4
4 2 4 3 5 10 8 4 7 5 8 4 11 12 9 7 4 4 6 5 5 2 1 2 4 3 4 4 3 5 6 5 6 6 7 5 4 3 6 6 7 3 3 5
6 3 12 8 4 8 4 4 7 7 9 2 3 5 7 4 2 4 4 3 2 2 4 3 3 5 6 6 5 6 6 7 5 5 7 7 6 6 5 6 3 4 5 5
10 8 4 3 4 7 6 2 9 5 3 5 5 4 7 6 6 4 2 1 2 5 5 4 4 6 6 5 1 5 5 4 4 5 6 7 7 5 5 4 4 4 4 5
3 7 7 8 7 1 5 0 1 2 5 4 7 5 6 5 3 3 2 4 5 5 5 3 3 6 6 5 1 5 4 5 5 5 6 6 6 5 4 4 5 4 3 2
4 2 3 5 4 1 3 3 4 5 8 7 6 5 3 2 2 3 4 5 5 4 5 3 4 5 5 3 4 5 5 3 5 8 8 8 6 7 5 3 2 2 3 3
5 6 6 2 1 4 3 4 6 6 6 6 4 4 4 3 0 0 2 3 5 5 5 4 4 4 4 1 2 3 5 7 6 6 7 8 6 6 6 3 4 3 3 4
6 7 6 6 8 5 5 7 6 7 5 5 4 2 4 4 4 3 2 3 3 7 6 7 7 7 7 7 6 4 3 5 5 8 6 7 8 8 6 4 5 8 8 8
Wind_Direction
6 100 187 195 163 120 132 122 182 240 55 227 236 267 273 286 284 265 260 261 258 252 265 245 233 226 209 205 195 197 192 199 186 194 199 206 214 206 205 196 188 186 190 189
49 208 206 127 130 118 128 123 211 302 45 154 351 284 267 270 255 239 254 264 257 276 284 284 252 233 209 211 208 208 204 196 196 197 205 206 210 214 212 205 195 191 195 193
154 210 138 128 130 138 169 159 200 192 31 52 350 292 309 294 276 292 264 251 272 257 274 280 292 265 238 222 205 208 203 201 198 202 185 100 92 79 192 206 202 201 196 197
198 143 134 134 161 136 181 201 171 147 98 229 28 283 300 295 299 285 284 315 286 274 264 294 304 303 277 255 216 208 206 206 205 193 190 199 209 212 216 216 207 201 192 203
232 164 143 156 192 156 208 122 134 86 99 55 329 26 271 338 285 275 316 347 346 352 285 338 12 7 33 9 277 221 206 204 198 195 201 201 211 219 210 209 191 194 197 201
147 82 155 171 75 134 151 83 52 54 85 317 227 177 277 209 220 211 330 334 345 348 350 360 7 23 16 22 37 64 197 212 196 196 203 200 208 197 162 182 205 204 200 208
39 220 276 127 82 27 89 93 16 360 9 227 327 138 244 256 245 252 320 318 338 349 357 353 12 12 12 19 20 19 58 193 200 198 196 193 202 181 192 176 203 196 197 189
155 246 167 184 179 169 192 162 156 190 196 247 69 234 251 224 285 262 266 344 355 8 9 16 11 15 15 11 19 24 28 32 48 170 197 198 188 179 192 190 188 205 209 220
155 262 193 138 154 140 199 214 155 103 22 60 226 288 300 110 53 76 59 45 12 2 29 22 14 16 15 11 14 13 9 17 34 13 141 212 201 203 211 210 202 209 221 229
195 122 358 158 111 32 156 162 83 2 133 253 269 267 229 214 154 113 88 59 15 23 40 34 18 7 16 11 7 22 16 21 17 26 25 351 294 268 259 209 222 220 224 207
143 131 301 105 212 160 139 188 61 127 153 176 236 255 223 160 165 147 140 25 18 9 33 47 37 21 24 23 23 23 24 24 18 14 15 8 351 342 307 257 259 243 230 214
188 136 174 199 263 256 324 202 158 146 219 255 171 252 311 189 141 126 105 8 356 17 35 46 43 36 25 38 37 32 22 18 358 355 4 7 353 347 329 311 292 270 256 243
175 208 64 348 346 355 216 203 166 103 77 208 149 257 45 86 126 52 338 6 35 50 47 37 36 34 21 29 30 30 27 15 4 5 5 2 358 349 333 314 285 279 263 248
70 90 176 214 148 310 196 190 180 158 185 231 224 257 176 229 168 105 328 101 111 77 60 48 37 26 8 28 25 19 18 9 1 4 7 2 356 346 335 317 310 296 274 267
115 172 173 228 109 261 249 246 214 205 228 196 268 232 193 202 192 192 177 131 80 57 46 44 32 16 14 16 16 12 13 6 359 3 4 355 338 333 330 333 322 309 305 286
186 173 136 259 197 209 257 247 243 248 274 289 177 257 206 230 229 154 151 125 95 65 48 34 31 25 17 8 3 358 358 357 356 2 354 334 343 336 337 333 327 325 316 306
165 145 118 265 166 159 284 229 211 212 201 165 229 244 170 207 223 162 152 134 113 80 43 21 13 9 360 355 346 351 336 320 348 356 348 348 338 332 333 320 321 314 307 296
151 158 104 188 155 219 243 43 197 216 216 221 238 163 170 180 144 117 127 139 127 108 56 6 357 349 345 336 334 327 332 341 347 352 338 342 345 336 332 333 332 326 312 305
173 165 157 179 195 302 294 198 171 170 253 219 222 174 172 110 85 122 135 121 144 151 183 228 239 265 296 316 323 330 334 339 344 343 332 326 327 326 327 328 324 314 304 304
122 279 167 147 196 202 229 201 143 128 281 204 182 183 169 138 167 233 166 150 148 133 222 292 313 292 302 312 313 323 317 328 325 332 322 314 302 290 310 311 313 290 304 293
185 197 218 191 212 281 253 173 144 135 240 274 132 134 130 144 216 135 146 156 171 207 286 294 288 295 298 320 335 318 326 322 332 329 325 326 330 323 306 310 293 301 308 305
178 174 188 147 199 265 186 37 165 182 85 119 93 94 105 115 112 117 125 305 275 275 294 310 307 312 321 331 27 299 307 329 325 329 319 315 307 304 301 305 301 318 328 321
224 185 182 177 206 318 216 73 28 118 127 126 109 96 98 81 63 16 312 331 329 326 315 318 295 319 335 336 352 306 295 336 338 320 301 286 287 281 276 293 307 324 323 314
270 174 154 73 294 195 105 75 70 85 104 109 109 114 115 111 355 301 309 318 321 317 329 349 347 313 307 314 307 256 298 326 327 318 315 313 307 305 294 269 271 259 291 300
186 132 164 257 155 88 46 121 128 106 97 93 94 102 101 102 130 245 321 320 346 349 354 356 323 297 294 288 323 328 4 355 332 310 303 304 301 299 302 278 272 254 256 219
181 167 164 214 191 154 180 178 161 144 141 120 105 77 46 56 41 19 359 23 11 338 339 332 326 324 327 337 335 353 12 5 341 321 319 319 312 307 299 297 307 303 286 291